GW6137 Weather Reports


time (UTC)temp
F
wind
direction
speed
knots
gust
knots
rain 1hr
in
rain 24hr
in
rain mn
in
humidity
%
barometer
mb
20260507034142 47 208 0.9 3.5 0.00 0.00 0.00 70 1014.2
20260507033640 47 225 2.6 2.6 0.00 0.00 0.00 69 1014.3
20260507033137 47 195 1.7 2.6 0.00 0.00 0.00 69 1014.4
20260507032635 47 214 0.9 2.6 0.00 0.00 0.00 70 1014.2
20260507032130 47 206 2.6 3.5 0.00 0.00 0.00 69 1014.2
20260507031627 47 203 2.6 3.5 0.00 0.00 0.00 69 1014.2
20260507031124 47 214 3.5 5.2 0.00 0.00 0.00 69 1014.1
20260507030621 47 201 3.5 5.2 0.00 0.00 0.00 68 1014.2
20260507030118 47 182 3.5 3.5 0.00 0.00 0.00 68 1014.0
20260507025615 47 233 1.7 3.5 0.00 0.00 0.00 68 1014.1
20260507025112 47 240 3.5 5.2 0.00 0.00 0.00 67 1014.3
20260507024610 47 296 1.7 2.6 0.00 0.00 0.00 67 1014.2
20260507024107 47 229 1.7 2.6 0.00 0.00 0.00 66 1014.2
20260507023602 47 208 2.6 5.2 0.00 0.00 0.00 67 1014.0
20260507023100 47 248 5.2 7.0 0.00 0.00 0.00 69 1014.0
20260507022557 47 183 3.5 7.0 0.00 0.00 0.00 69 1013.9
20260507022052 47 220 5.2 6.1 0.00 0.00 0.00 68 1013.9
20260507021549 47 207 5.2 6.1 0.00 0.00 0.00 68 1013.7
20260507021045 47 211 3.5 3.5 0.00 0.00 0.00 71 1013.7
20260507020543 47 242 2.6 3.5 0.00 0.00 0.00 73 1013.8
20260507020039 47 241 1.7 3.5 0.00 0.00 0.00 72 1013.8
20260507015538 47 192 3.5 3.5 0.00 0.00 0.00 73 1013.8
20260507015035 47 182 0.9 1.7 0.00 0.00 0.00 74 1013.8
20260507014531 46 255 2.6 2.6 0.00 0.00 0.00 74 1013.7
20260507014027 46 192 1.7 2.6 0.00 0.00 0.00 74 1013.8
20260507013524 46 186 2.6 3.5 0.00 0.00 0.00 75 1013.7
20260507013021 46 224 0.9 2.6 0.00 0.00 0.00 74 1013.7
20260507012518 46 243 2.6 2.6 0.00 0.00 0.00 73 1013.7
20260507012014 46 234 2.6 3.5 0.00 0.00 0.00 72 1013.6
20260507011512 46 205 1.7 2.6 0.00 0.00 0.00 74 1013.8
20260507011008 46 191 0.9 1.7 0.00 0.00 0.00 75 1013.6
20260507010502 47 163 1.7 3.5 0.00 0.00 0.00 75 1013.5
20260507005959 46 241 2.6 2.6 0.00 0.00 0.00 76 1013.5
20260507005457 46 210 3.5 6.1 0.00 0.00 0.00 75 1013.6
20260507004953 46 198 2.6 7.0 0.00 0.00 0.00 72 1013.5
20260507004450 46 201 6.1 7.8 0.00 0.00 0.00 73 1013.5
20260507003948 46 183 5.2 7.0 0.00 0.00 0.00 75 1013.5
20260507003442 46 239 3.5 5.2 0.00 0.00 0.00 76 1013.3
20260507002937 46 227 3.5 7.8 0.00 0.00 0.00 75 1013.3
20260507002434 46 225 7.0 7.8 0.00 0.00 0.00 75 1013.4
20260507001931 46 243 2.6 6.1 0.00 0.00 0.00 75 1013.4
20260507001428 46 210 3.5 7.0 0.00 0.00 0.00 74 1013.4
20260507000926 46 220 1.7 3.5 0.00 0.00 0.00 77 1013.2
20260507000421 46 150 1.7 6.1 0.00 0.00 0.00 75 1013.4
20260506235916 47 215 0.9 2.6 0.00 0.00 0.00 77 1013.2
20260506235414 47 204 3.5 5.2 0.00 0.00 0.00 76 1013.2
20260506234909 47 189 4.3 5.2 0.00 0.00 0.00 75 1013.3
20260506234408 47 229 4.3 7.0 0.00 0.00 0.00 69 1013.2
20260506233905 47 195 4.3 5.2 0.00 0.00 0.00 69 1013.3
20260506233400 47 166 1.7 3.5 0.00 0.00 0.00 69 1013.0
20260506232858 47 205 4.3 6.1 0.00 0.00 0.00 67 1012.9
20260506232354 47 234 3.5 6.1 0.00 0.00 0.00 67 1012.9
20260506231850 47 183 2.6 6.1 0.00 0.00 0.00 68 1012.8
20260506231348 47 174 3.5 7.0 0.00 0.00 0.00 69 1012.9
20260506230845 47 208 2.6 3.5 0.00 0.00 0.00 70 1012.9
20260506230342 47 262 2.6 5.2 0.00 0.00 0.00 70 1012.9
20260506225838 48 190 3.5 6.1 0.00 0.00 0.00 69 1012.9
20260506225335 48 185 2.6 2.6 0.00 0.00 0.00 69 1012.9
20260506224832 48 187 2.6 5.2 0.00 0.00 0.00 66 1012.8
20260506224329 48 187 3.5 6.1 0.00 0.00 0.00 65 1012.7
20260506223826 48 193 4.3 7.0 0.00 0.00 0.00 64 1012.7
20260506223321 48 216 5.2 7.0 0.00 0.00 0.00 63 1012.7
20260506222819 48 212 4.3 7.0 0.00 0.00 0.00 63 1012.6
20260506222314 47 199 5.2 6.1 0.00 0.00 0.00 64 1012.6
20260506221812 47 223 5.2 7.0 0.00 0.00 0.00 64 1012.6
20260506221309 48 226 4.3 7.0 0.00 0.00 0.00 63 1012.5
20260506220808 48 220 5.2 7.0 0.00 0.00 0.00 64 1012.5
20260506220307 48 212 5.2 7.8 0.00 0.00 0.00 63 1012.5
20260506215804 48 199 3.5 7.0 0.00 0.00 0.00 64 1012.5
20260506215300 48 207 6.1 7.8 0.00 0.00 0.00 64 1012.4
20260506214756 48 227 5.2 7.0 0.00 0.00 0.00 64 1012.3
20260506214253 48 186 5.2 7.0 0.00 0.00 0.00 63 1012.5
20260506213752 47 187 6.1 9.6 0.00 0.00 0.00 64 1012.4
20260506213248 47 172 3.5 6.1 0.00 0.00 0.00 65 1012.4
20260506212746 48 234 5.2 7.0 0.00 0.00 0.00 64 1012.3
20260506212241 48 202 4.3 8.7 0.00 0.00 0.00 63 1012.2
20260506211736 48 226 1.7 7.0 0.00 0.00 0.00 64 1012.1
20260506211233 48 256 5.2 6.1 0.00 0.00 0.00 64 1012.1
20260506210731 49 190 6.1 7.8 0.00 0.00 0.00 62 1012.1
20260506210227 49 223 6.1 7.0 0.00 0.00 0.00 62 1012.0
20260506205724 49 178 3.5 7.8 0.00 0.00 0.00 61 1012.0
20260506205220 49 195 4.3 7.0 0.00 0.00 0.00 61 1012.0
20260506204717 49 242 5.2 7.0 0.00 0.00 0.00 61 1011.8
20260506204214 48 246 1.7 3.5 0.00 0.00 0.00 61 1011.8
20260506203712 49 231 3.5 3.5 0.00 0.00 0.00 59 1011.6
20260506203209 49 172 5.2 6.1 0.00 0.00 0.00 60 1011.8
20260506202702 49 65 1.7 2.6 0.00 0.00 0.00 59 1011.7
20260506202157 49 180 2.6 3.5 0.00 0.00 0.00 63 1011.7
20260506201655 48 134 1.7 6.1 0.00 0.00 0.00 61 1011.7
20260506201151 48 180 4.3 5.2 0.00 0.00 0.00 61 1011.6
20260506200648 49 226 3.5 5.2 0.00 0.00 0.00 61 1011.7
20260506200144 49 162 1.7 2.6 0.00 0.00 0.00 62 1011.5
20260506195641 48 195 1.7 3.5 0.00 0.00 0.00 63 1011.5
20260506195137 48 312 0.9 0.9 0.00 0.00 0.00 64 1011.6
20260506194634 47 285 0.9 0.9 0.00 0.00 0.00 65 1011.6
20260506194130 47 230 2.6 5.2 0.00 0.00 0.00 64 1011.5
20260506193628 47 226 2.6 5.2 0.00 0.00 0.00 64 1011.5
20260506193125 47 141 1.7 2.6 0.00 0.00 0.00 65 1011.4
20260506192622 47 188 2.6 5.2 0.00 0.00 0.00 65 1011.2
20260506192118 48 217 3.5 5.2 0.00 0.00 0.00 64 1011.4
20260506191615 47 274 0.9 1.7 0.00 0.00 0.00 66 1011.5
20260506191110 48 251 1.7 2.6 0.00 0.00 0.00 65 1011.5
20260506190608 48 225 0.9 1.7 0.00 0.00 0.00 63 1011.4
20260506190105 47 250 0.0 1.7 0.00 0.00 0.00 64 1011.6
20260506185602 47 221 0.9 1.7 0.00 0.00 0.00 63 1011.4
20260506185058 47 210 0.9 2.6 0.00 0.00 0.00 67 1011.4
20260506184556 47 168 2.6 3.5 0.00 0.00 0.00 65 1011.6
20260506184053 47 230 2.6 6.1 0.00 0.00 0.00 65 1011.5
20260506183549 47 167 2.6 3.5 0.00 0.00 0.00 65 1011.3
20260506183045 47 199 3.5 5.2 0.00 0.00 0.00 65 1011.2
20260506182543 46 136 0.9 2.6 0.00 0.00 0.00 67 1011.4
20260506182040 46 177 1.7 3.5 0.00 0.00 0.00 66 1011.2
20260506181538 46 201 4.3 5.2 0.00 0.00 0.00 66 1011.4
20260506181035 46 176 3.5 5.2 0.00 0.00 0.00 66 1011.3
20260506180531 46 225 1.7 1.7 0.00 0.00 0.00 66 1011.2
20260506180028 46 71 0.9 2.6 0.00 0.00 0.00 68 1011.2
20260506175525 46 227 1.7 2.6 0.00 0.00 0.00 67 1011.1
20260506175021 46 183 3.5 3.5 0.00 0.00 0.00 68 1011.3
20260506174520 46 220 1.7 5.2 0.00 0.00 0.00 68 1011.2
20260506174015 47 202 2.6 2.6 0.00 0.00 0.00 66 1011.3
20260506173513 47 77 0.0 2.6 0.00 0.00 0.00 69 1011.2
20260506173010 47 107 0.9 1.7 0.00 0.00 0.00 66 1011.3
20260506172508 46 94 0.9 0.9 0.00 0.00 0.00 68 1011.3
20260506172004 45 223 1.7 1.7 0.00 0.00 0.00 69 1011.3
20260506171502 45 182 1.7 2.6 0.00 0.00 0.00 69 1011.4
20260506170959 46 7 0.0 0.0 0.00 0.00 0.00 70 1011.2
20260506170455 46 72 0.0 0.9 0.00 0.00 0.00 67 1011.3
20260506165953 47 55 0.9 1.7 0.00 0.00 0.00 65 1011.2
20260506165452 46 30 1.7 2.6 0.00 0.00 0.00 66 1011.3
20260506164948 46 340 0.0 0.9 0.00 0.00 0.00 68 1011.1
20260506164444 46 21 0.9 1.7 0.00 0.00 0.00 68 1011.2
20260506163942 45 3 0.0 0.0 0.00 0.00 0.00 72 1011.1
20260506163437 45 18 0.0 0.0 0.00 0.00 0.00 71 1011.2
20260506162932 44 342 0.0 0.9 0.00 0.00 0.00 73 1011.2
20260506162430 44 337 0.0 0.9 0.00 0.00 0.00 73 1011.2
20260506161927 44 16 0.0 0.0 0.00 0.00 0.00 74 1011.0
20260506161425 44 340 0.0 1.7 0.00 0.00 0.00 76 1011.1
20260506160922 44 301 1.7 2.6 0.00 0.00 0.00 76 1011.0
20260506160419 44 2 0.0 0.9 0.00 0.00 0.00 79 1011.1
20260506155917 43 26 0.0 0.0 0.00 0.00 0.00 79 1011.1
20260506155414 43 354 0.0 0.9 0.00 0.00 0.00 79 1011.0
20260506153531 42 308 0.0 0.0 0.00 0.00 0.00 86 1011.0
20260506153028 42 308 0.0 0.0 0.00 0.00 0.00 84 1010.8
20260506152525 41 308 0.0 0.0 0.00 0.00 0.00 85 1011.0
20260506152023 41 308 0.0 0.0 0.00 0.00 0.00 86 1011.0
20260506151520 40 308 0.0 0.0 0.00 0.00 0.00 88 1010.8
20260506151018 40 308 0.0 0.0 0.00 0.00 0.00 88 1011.0
20260506150514 40 308 0.0 0.0 0.00 0.00 0.00 89 1010.8
20260506150011 40 308 0.0 0.0 0.00 0.00 0.00 89 1011.0
20260506145507 39 308 0.0 0.0 0.00 0.00 0.00 88 1010.9
20260506145005 39 308 0.0 0.0 0.00 0.00 0.00 89 1010.8
20260506144501 39 308 0.0 0.0 0.00 0.00 0.00 89 1010.9
20260506143959 39 308 0.0 0.0 0.00 0.00 0.00 90 1010.9
20260506143456 39 308 0.0 0.0 0.00 0.00 0.00 90 1011.0
20260506142955 39 308 0.0 0.0 0.00 0.00 0.00 90 1010.8
20260506142452 39 308 0.0 0.0 0.00 0.00 0.00 90 1010.9
20260506141950 39 308 0.0 0.0 0.00 0.00 0.00 89 1010.9
20260506141447 39 308 0.0 0.0 0.00 0.00 0.00 89 1010.8
20260506140946 39 308 0.0 0.0 0.00 0.00 0.00 89 1011.0
20260506140442 38 308 0.0 0.0 0.00 0.00 0.00 89 1010.8
20260506135939 38 308 0.0 0.0 0.00 0.00 0.00 88 1011.0
20260506135437 38 308 0.0 0.0 0.00 0.00 0.00 89 1011.0
20260506134932 39 308 0.0 0.0 0.00 0.00 0.00 89 1011.0
20260506134429 39 308 0.0 0.0 0.00 0.00 0.00 89 1010.9
20260506133926 39 308 0.0 0.0 0.00 0.00 0.00 89 1010.9
20260506133423 39 308 0.0 0.0 0.00 0.00 0.00 86 1011.0
20260506132920 39 308 0.0 0.0 0.00 0.00 0.00 87 1011.0
20260506132417 39 308 0.0 0.0 0.00 0.00 0.00 86 1011.0
20260506131914 40 308 0.0 0.0 0.00 0.00 0.00 87 1010.8
20260506131410 40 308 0.0 0.0 0.00 0.00 0.00 86 1010.9
20260506130908 40 308 0.0 0.0 0.00 0.00 0.00 86 1010.9
20260506130404 40 308 0.0 0.0 0.00 0.00 0.00 86 1010.8
20260506125902 41 308 0.0 0.0 0.00 0.00 0.00 85 1010.8
20260506125400 41 308 0.0 0.0 0.00 0.00 0.00 85 1011.0
20260506124858 41 308 0.0 0.0 0.00 0.00 0.00 85 1010.8
20260506124355 41 308 0.0 0.0 0.00 0.00 0.00 84 1010.9
20260506123853 41 307 0.0 0.0 0.00 0.00 0.00 80 1010.9
20260506123351 41 309 0.0 0.0 0.00 0.00 0.00 82 1010.9
20260506122848 41 310 0.0 0.0 0.00 0.00 0.00 84 1010.8
20260506122344 41 310 0.0 0.0 0.00 0.00 0.00 83 1010.6
20260506121843 41 310 0.0 0.0 0.00 0.00 0.00 80 1010.8
20260506121340 42 309 0.0 0.0 0.00 0.00 0.00 79 1010.8
20260506120837 42 308 0.0 0.0 0.00 0.00 0.00 76 1010.6
20260506120334 42 319 0.0 0.0 0.00 0.00 0.00 74 1010.5
20260506115832 43 280 0.9 0.9 0.00 0.00 0.00 72 1010.7
20260506115330 43 252 0.9 1.7 0.00 0.00 0.00 70 1010.6
20260506114828 43 204 1.7 2.6 0.00 0.00 0.00 69 1010.6
20260506114325 43 218 1.7 2.6 0.00 0.00 0.00 69 1010.4
20260506113823 43 221 0.9 3.5 0.00 0.00 0.00 69 1010.6
20260506113320 43 210 1.7 3.5 0.00 0.00 0.00 71 1010.5
20260506112817 43 225 1.7 2.6 0.00 0.00 0.00 73 1010.2
20260506112314 43 212 1.7 1.7 0.00 0.00 0.00 75 1010.1
20260506111811 43 217 0.0 0.9 0.00 0.00 0.00 73 1010.2
20260506111309 43 183 0.9 2.6 0.00 0.00 0.00 72 1010.0
20260506110807 43 215 1.7 2.6 0.00 0.00 0.00 71 1010.1
20260506110304 43 228 2.6 2.6 0.00 0.00 0.00 71 1009.9
20260506105800 43 213 1.7 3.5 0.00 0.00 0.00 71 1010.0
20260506105257 43 216 2.6 5.2 0.00 0.00 0.00 72 1009.9
20260506104755 43 204 3.5 3.5 0.00 0.00 0.00 72 1009.8
20260506104252 43 170 1.7 1.7 0.00 0.00 0.00 71 1009.6
20260506103749 43 218 0.9 1.7 0.00 0.00 0.00 71 1009.7
20260506103247 43 136 0.9 0.9 0.00 0.00 0.00 70 1009.6
20260506102744 43 252 0.0 0.9 0.00 0.00 0.00 69 1009.5
20260506102243 44 260 0.0 0.9 0.00 0.00 0.00 68 1009.4
20260506101739 44 282 0.0 0.0 0.00 0.00 0.00 67 1009.3
20260506101235 45 155 0.9 1.7 0.00 0.00 0.00 66 1009.1
20260506100733 45 226 0.9 1.7 0.00 0.00 0.00 63 1009.1
20260506100231 44 35 0.0 1.7 0.00 0.00 0.00 64 1009.1
20260506095729 44 52 0.0 0.0 0.00 0.00 0.00 65 1009.3
20260506095226 45 75 0.0 0.0 0.00 0.00 0.00 64 1009.2
20260506094723 45 198 1.7 1.7 0.00 0.00 0.00 64 1009.0
20260506094221 44 227 2.6 2.6 0.00 0.00 0.00 64 1009.0
20260506093720 45 189 1.7 3.5 0.00 0.00 0.00 65 1008.9
20260506093216 46 74 0.0 0.9 0.00 0.00 0.00 61 1008.8
20260506092714 46 41 0.0 0.9 0.00 0.00 0.00 57 1008.8
20260506092211 46 95 0.9 2.6 0.00 0.00 0.00 57 1008.8
20260506091709 45 46 1.7 2.6 0.00 0.00 0.00 57 1008.7
20260506091206 46 43 0.0 0.9 0.00 0.00 0.00 60 1008.8
20260506090704 46 108 1.7 1.7 0.00 0.00 0.00 58 1008.4
20260506090200 46 15 0.0 5.2 0.00 0.00 0.00 55 1008.6
20260506085657 47 54 1.7 5.2 0.00 0.00 0.00 52 1008.5
20260506085153 47 2 0.0 3.5 0.00 0.00 0.00 52 1008.6
20260506084650 47 27 2.6 5.2 0.00 0.00 0.00 52 1008.5
20260506084147 47 19 4.3 7.0 0.00 0.00 0.00 52 1008.4
20260506083643 47 35 0.0 7.8 0.00 0.00 0.00 52 1008.4
20260506083141 47 41 2.6 5.2 0.00 0.00 0.00 52 1008.4
20260506082638 47 81 3.5 6.1 0.00 0.00 0.00 51 1008.3
20260506082133 47 46 1.7 5.2 0.00 0.00 0.00 51 1008.4
20260506081632 47 51 3.5 6.1 0.00 0.00 0.00 51 1008.3
20260506081129 47 83 4.3 5.2 0.00 0.00 0.00 52 1008.3
20260506080627 47 24 3.5 6.1 0.00 0.00 0.00 51 1008.3
20260506080123 47 14 0.0 0.9 0.00 0.00 0.00 52 1008.5
20260506073107 47 40 0.0 1.7 0.00 0.00 0.00 52 1008.2
20260506072603 47 59 0.9 2.6 0.00 0.00 0.00 53 1008.1
20260506072102 47 39 0.9 2.6 0.00 0.00 0.00 54 1008.0
20260506071559 47 220 0.9 2.6 0.00 0.00 0.00 52 1007.9
20260506071056 47 21 0.0 5.2 0.00 0.00 0.00 52 1007.6
20260506070553 48 26 6.1 9.6 0.00 0.00 0.00 51 1007.4
20260506062028 48 32 6.1 9.6 0.00 0.00 0.00 50 1006.9
20260506061529 48 63 3.5 13.0 0.00 0.00 0.00 50 1006.9
20260506061027 49 332 6.1 12.2 0.00 0.00 0.00 49 1006.9
20260506060525 48 11 4.3 9.6 0.00 0.00 0.00 49 1007.0
20260506050954 49 52 6.1 13.9 0.00 0.00 0.00 49 1006.4
20260506050451 49 45 6.1 9.6 0.00 0.00 0.00 50 1006.4
20260506044942 49 8 7.0 8.7 0.00 0.00 0.00 49 1006.2
20260506044440 49 52 7.0 12.2 0.00 0.00 0.00 48 1006.3
20260506043936 50 57 4.3 8.7 0.00 0.00 0.00 48 1006.1
20260506043434 50 10 4.3 9.6 0.00 0.00 0.00 47 1005.9
20260506042931 50 36 4.3 9.6 0.00 0.00 0.00 47 1006.0
20260506042431 51 29 1.7 8.7 0.00 0.00 0.00 46 1006.0
20260506041928 51 55 3.5 7.0 0.00 0.00 0.00 46 1005.9
20260506041426 51 42 6.1 9.6 0.00 0.00 0.00 46 1006.0
20260506040923 51 35 3.5 7.8 0.00 0.00 0.00 45 1006.0
20260506040420 51 311 2.6 8.7 0.00 0.00 0.00 45 1005.8
20260506035916 51 26 8.7 13.0 0.00 0.00 0.00 45 1006.0
20260506035414 51 53 6.1 8.7 0.00 0.00 0.00 46 1005.8
20260506034911 51 3 3.5 7.8 0.00 0.00 0.00 46 1005.8